EW9996 Weather Reports


Display with metric or nautical units.
time (UTC)temp
F
wind
direction
speed
MPH
gust
MPH
rain 1hr
in
rain 24hr
in
rain mn
in
humidity
%
barometer
mb
20260504041549 44 0 0.0 0.0 0.00 0.00 0.00 63 1012.8
20260504034557 46 0 0.0 0.0 0.00 0.00 0.00 59 1012.7
20260504033124 46 0 0.0 0.0 0.00 0.00 0.00 57 1012.7
20260504031549 47 0 0.0 0.0 0.00 0.00 0.00 56 1012.8
20260504030048 48 0 0.0 0.0 0.00 0.00 0.00 54 1012.7
20260504024546 48 0 0.0 0.0 0.00 0.00 0.00 54 1012.7
20260504023102 48 0 0.0 0.0 0.00 0.00 0.00 52 1012.8
20260504021551 49 0 0.0 0.0 0.00 0.00 0.00 51 1012.7
20260504020051 50 0 0.0 0.0 0.00 0.00 0.00 49 1012.7
20260504014549 50 0 0.0 0.0 0.00 0.00 0.00 49 1012.6
20260504013054 50 0 0.0 0.0 0.00 0.00 0.00 47 1012.5
20260504011552 51 0 0.0 0.0 0.00 0.00 0.00 47 1012.4
20260504010104 51 0 0.0 0.0 0.00 0.00 0.00 46 1012.3
20260504004601 52 0 0.0 0.0 0.00 0.00 0.00 44 1012.3
20260504003048 52 0 0.0 0.0 0.00 0.00 0.00 44 1012.2
20260504001551 53 0 0.0 0.0 0.00 0.00 0.00 42 1012.2
20260504000053 55 0 0.0 0.0 0.00 0.00 0.00 40 1012.0
20260503234552 55 0 0.0 0.0 0.00 0.00 0.00 38 1012.1
20260503233046 56 0 0.0 0.0 0.00 0.00 0.00 38 1012.1
20260503231555 57 0 0.0 0.0 0.00 0.00 0.00 37 1012.1
20260503230057 58 0 0.0 0.0 0.00 0.00 0.00 38 1012.0
20260503224552 58 0 0.0 0.0 0.00 0.00 0.00 35 1011.8
20260503223058 58 0 0.0 0.0 0.00 0.00 0.00 37 1011.9
20260503221554 59 0 0.0 0.0 0.00 0.00 0.00 35 1011.9
20260503220053 58 0 0.0 0.0 0.00 0.00 0.00 36 1012.0
20260503214548 57 0 0.0 0.0 0.00 0.00 0.00 38 1012.0
20260503213103 57 0 0.0 0.0 0.00 0.00 0.00 36 1012.1
20260503211548 59 0 0.0 1.0 0.00 0.00 0.00 36 1012.2
20260503210057 57 0 0.0 0.0 0.00 0.00 0.00 36 1012.2
20260503204553 58 0 0.0 0.0 0.00 0.00 0.00 36 1012.2
20260503203047 58 0 0.0 0.0 0.00 0.00 0.00 34 1012.1
20260503201552 59 0 0.0 0.0 0.00 0.00 0.00 37 1012.5
20260503200057 58 0 0.0 1.0 0.00 0.00 0.00 37 1012.6
20260503194547 58 0 0.0 0.0 0.00 0.00 0.00 38 1012.7
20260503193054 58 0 0.0 0.0 0.00 0.00 0.00 37 1013.1
20260503191547 57 0 0.0 0.0 0.00 0.00 0.00 36 1013.2
20260503190048 58 0 0.0 0.0 0.00 0.00 0.00 36 1013.2
20260503184555 56 0 0.0 1.0 0.00 0.00 0.00 39 1013.2
20260503183100 56 0 0.0 9.0 0.00 0.00 0.00 37 1013.4
20260503181550 57 0 0.0 0.0 0.00 0.00 0.00 38 1013.5
20260503180048 55 0 0.0 0.0 0.00 0.00 0.00 39 1013.6
20260503174547 55 0 0.0 1.0 0.00 0.00 0.00 40 1013.9
20260503173113 55 0 0.0 0.0 0.00 0.00 0.00 42 1014.1
20260503171552 55 0 0.0 0.0 0.00 0.00 0.00 41 1014.1
20260503120109 36 0 0.0 0.0 0.00 0.00 0.00 78 1015.2
20260503081549 35 0 0.0 0.0 0.00 0.00 0.00 77 1013.9
20260503071551 37 0 0.0 0.0 0.00 0.00 0.00 74 1013.6
20260503070104 37 0 0.0 0.0 0.00 0.00 0.00 74 1013.4
20260503054607 37 0 0.0 0.0 0.00 0.00 0.00 74 1013.5
20260503053053 38 0 0.0 0.0 0.00 0.00 0.00 72 1013.7
20260503051554 38 0 0.0 0.0 0.00 0.00 0.00 71 1013.6
20260503050054 39 0 0.0 0.0 0.00 0.00 0.00 69 1013.7
20260503044549 40 0 0.0 0.0 0.00 0.01 0.00 66 1013.8
20260503043047 40 0 0.0 0.0 0.00 0.01 0.00 66 1013.7